Location: Bothwell
(42.3833°S, 147.0000°E)
Time: 14:06:18
(UTC+10:00)

FO-29 - Visible Passes

Search period start: 08 June 2023 00:00
Search period end: 18 June 2023 00:00
Orbit: 799 x 1322 km, 98.5° (Epoch: 07 June)

Date Brightness Start Highest point End Pass type
(mag) Time Alt. Az. Time Alt. Az. Time Alt. Az.
08 Jun 10.6 17:16:53 10° S 17:24:24 58° WSW 17:31:07 10° NW visible
08 Jun 12.4 19:04:35 10° SSW 19:07:40 13° SW 19:10:41 10° WSW visible
09 Jun 11.7 18:07:34 10° S 18:13:47 28° WSW 18:19:31 10° WNW visible
10 Jun 10.5 17:11:53 10° S 17:19:22 62° WSW 17:26:01 10° NNW visible
10 Jun 12.4 18:59:24 10° SSW 19:02:42 14° SW 19:05:55 10° WSW visible
11 Jun 11.6 18:02:32 10° S 18:08:47 29° WSW 18:14:31 10° WNW visible
12 Jun 10.4 17:06:54 10° S 17:14:20 65° WSW 17:20:52 10° NNW visible
12 Jun 12.3 18:54:14 10° SSW 18:57:45 14° SW 19:01:07 10° WSW visible
13 Jun 11.5 17:57:30 10° S 18:03:47 31° WSW 18:09:31 10° WNW visible
14 Jun 12.3 18:49:06 10° SSW 18:52:47 15° SW 18:56:17 10° W visible
15 Jun 11.4 17:52:27 10° S 17:58:46 32° WSW 18:04:29 10° WNW visible
16 Jun 12.2 18:43:58 10° SSW 18:47:48 15° SW 18:51:25 10° W visible
17 Jun 11.3 17:47:25 10° S 17:53:44 34° WSW 17:59:25 10° WNW visible
